Time,TemperatureF,DewpointF,PressureIn,WindDirection,WindDirectionDegrees,WindSpeedMPH,WindSpeedGustMPH,Humidity,HourlyPrecipIn,Conditions,Clouds,dailyrainin,SoftwareType,DateUTC
2013-05-03 00:03:00,31.1,20.7,30.44,NNW,338,8.6,9.2,65,0.00,CLR,CLR,0.00,WeatherDisplay:10.37,2013-05-03 05:03:00,
2013-05-03 00:08:00,30.9,20.5,30.45,NNW,338,6.9,9.2,65,0.00,CLR,CLR,0.00,WeatherDisplay:10.37,2013-05-03 05:08:00,
2013-05-03 00:13:00,30.9,20.5,30.44,NNW,338,9.6,10.4,65,0.00,CLR,CLR,0.00,WeatherDisplay:10.37,2013-05-03 05:13:00,
2013-05-03 00:18:00,30.7,20.7,30.44,NW,315,7.7,10.4,66,0.00,CLR,CLR,0.00,WeatherDisplay:10.37,2013-05-03 05:18:00,
2013-05-03 00:23:00,30.7,20.7,30.44,NNW,338,7.2,7.2,66,0.00,CLR,CLR,0.00,WeatherDisplay:10.37,2013-05-03 05:23:00,
2013-05-03 00:28:00,30.7,20.7,30.44,NW,315,7.5,10.4,66,0.00,CLR,CLR,0.00,WeatherDisplay:10.37,2013-05-03 05:28:00,
2013-05-03 00:33:00,30.7,20.7,30.44,WNW,292,5.4,8.0,66,0.00,CLR,CLR,0.00,WeatherDisplay:10.37,2013-05-03 05:33:00,
2013-05-03 00:38:00,30.6,20.5,30.44,NNW,338,8.2,10.3,66,0.00,CLR,CLR,0.00,WeatherDisplay:10.37,2013-05-03 05:38:00,
2013-05-03 00:44:00,30.4,20.7,30.44,NW,315,7.2,8.1,67,0.00,CLR,CLR,0.00,WeatherDisplay:10.37,2013-05-03 05:44:00,
2013-05-03 00:49:00,30.4,20.7,30.44,NNW,338,4.3,8.9,67,0.00,CLR,CLR,0.00,WeatherDisplay:10.37,2013-05-03 05:49:00,
2013-05-03 00:54:00,30.2,20.6,30.44,NNW,338,4.8,9.2,67,0.00,CLR,CLR,0.00,WeatherDisplay:10.37,2013-05-03 05:54:00,
2013-05-03 00:59:00,30.0,20.4,30.44,NW,315,8.0,10.4,67,0.00,CLR,CLR,0.00,WeatherDisplay:10.37,2013-05-03 05:59:00,
2013-05-03 01:04:00,30.0,20.4,30.44,North,0,8.1,9.2,67,0.00,CLR,CLR,0.00,WeatherDisplay:10.37,2013-05-03 06:04:00,
2013-05-03 01:10:00,30.0,20.7,30.44,NW,315,8.2,10.4,68,0.00,CLR,CLR,0.00,WeatherDisplay:10.37,2013-05-03 06:10:00,
2013-05-03 01:15:00,30.0,20.7,30.43,North,0,7.1,9.2,68,0.00,CLR,CLR,0.00,WeatherDisplay:10.37,2013-05-03 06:15:00,
2013-05-03 01:20:00,29.8,20.6,30.43,NNW,338,6.6,8.1,68,0.00,CLR,CLR,0.00,WeatherDisplay:10.37,2013-05-03 06:20:00,
2013-05-03 01:25:00,29.8,20.6,30.43,NNW,338,5.9,8.1,68,0.00,CLR,CLR,0.00,WeatherDisplay:10.37,2013-05-03 06:25:00,
2013-05-03 01:31:00,29.8,20.6,30.43,North,0,5.8,6.9,68,0.00,CLR,CLR,0.00,WeatherDisplay:10.37,2013-05-03 06:31:00,
2013-05-03 01:36:00,29.8,20.9,30.43,NNW,338,7.5,10.5,69,0.00,CLR,CLR,0.00,WeatherDisplay:10.37,2013-05-03 06:36:00,
2013-05-03 01:41:00,29.8,20.9,30.43,NW,315,6.8,9.2,69,0.00,CLR,CLR,0.00,WeatherDisplay:10.37,2013-05-03 06:41:00,
2013-05-03 01:46:00,29.8,20.9,30.42,NNW,338,8.2,9.2,69,0.00,CLR,CLR,0.00,WeatherDisplay:10.37,2013-05-03 06:46:00,
2013-05-03 01:52:00,29.8,20.9,30.42,NNW,338,7.0,9.8,69,0.00,CLR,CLR,0.00,WeatherDisplay:10.37,2013-05-03 06:52:00,
2013-05-03 01:57:00,29.8,20.9,30.42,NNW,338,7.3,11.5,69,0.00,CLR,CLR,0.00,WeatherDisplay:10.37,2013-05-03 06:57:00,
2013-05-03 02:02:00,29.8,20.9,30.42,North,0,8.1,9.2,69,0.00,CLR,CLR,0.00,WeatherDisplay:10.37,2013-05-03 07:02:00,
2013-05-03 02:07:00,29.8,20.9,30.42,NNW,338,7.5,9.2,69,0.00,CLR,CLR,0.00,WeatherDisplay:10.37,2013-05-03 07:07:00,
2013-05-03 02:13:00,29.7,20.7,30.42,NW,315,6.2,8.1,69,0.00,CLR,CLR,0.00,WeatherDisplay:10.37,2013-05-03 07:13:00,
2013-05-03 02:18:00,29.5,20.9,30.41,NW,315,6.3,8.1,70,0.00,CLR,CLR,0.00,WeatherDisplay:10.37,2013-05-03 07:18:00,
2013-05-03 02:23:00,29.7,21.1,30.41,North,0,7.8,10.3,70,0.00,CLR,CLR,0.00,WeatherDisplay:10.37,2013-05-03 07:23:00,
2013-05-03 02:28:00,29.7,21.1,30.41,NW,315,5.7,6.9,70,0.00,CLR,CLR,0.00,WeatherDisplay:10.37,2013-05-03 07:28:00,
2013-05-03 02:33:00,29.5,20.9,30.41,NNW,338,8.3,10.4,70,0.00,CLR,CLR,0.00,WeatherDisplay:10.37,2013-05-03 07:33:00,
2013-05-03 02:38:00,29.3,20.7,30.41,NW,315,8.4,11.5,70,0.00,CLR,CLR,0.00,WeatherDisplay:10.37,2013-05-03 07:38:00,
2013-05-03 02:44:00,29.3,20.7,30.41,NNW,338,8.6,9.2,70,0.00,CLR,CLR,0.00,WeatherDisplay:10.37,2013-05-03 07:44:00,
2013-05-03 02:49:00,29.1,20.6,30.40,NNW,338,9.2,12.7,70,0.00,CLR,CLR,0.00,WeatherDisplay:10.37,2013-05-03 07:49:00,
2013-05-03 02:54:00,29.1,20.6,30.39,NNE,22,6.7,9.2,70,0.00,CLR,CLR,0.00,WeatherDisplay:10.37,2013-05-03 07:54:00,
2013-05-03 02:59:00,29.1,20.6,30.39,NNW,338,7.1,10.4,70,0.00,CLR,CLR,0.00,WeatherDisplay:10.37,2013-05-03 07:59:00,
2013-05-03 03:04:00,29.1,20.6,30.40,NW,315,5.5,6.9,70,0.00,CLR,CLR,0.00,WeatherDisplay:10.37,2013-05-03 08:04:00,
2013-05-03 03:09:00,29.1,20.6,30.40,NNW,338,6.4,9.2,70,0.00,CLR,CLR,0.00,WeatherDisplay:10.37,2013-05-03 08:09:00,
2013-05-03 03:15:00,28.9,20.4,30.40,NNW,338,8.3,11.5,70,0.00,CLR,CLR,0.00,WeatherDisplay:10.37,2013-05-03 08:15:00,
2013-05-03 03:20:00,28.9,20.4,30.40,NNW,338,9.3,10.4,70,0.00,CLR,CLR,0.00,WeatherDisplay:10.37,2013-05-03 08:20:00,
2013-05-03 03:25:00,28.9,20.7,30.40,NNE,22,9.5,11.5,71,0.00,CLR,CLR,0.00,WeatherDisplay:10.37,2013-05-03 08:25:00,
2013-05-03 03:30:00,28.8,20.5,30.40,NNE,22,6.7,8.1,71,0.00,CLR,CLR,0.00,WeatherDisplay:10.37,2013-05-03 08:30:00,
2013-05-03 03:36:00,28.8,20.5,30.40,North,0,6.2,8.1,71,0.00,CLR,CLR,0.00,WeatherDisplay:10.37,2013-05-03 08:36:00,
2013-05-03 03:41:00,28.6,20.4,30.39,NNW,338,7.0,7.0,71,0.00,CLR,CLR,0.00,WeatherDisplay:10.37,2013-05-03 08:41:00,
2013-05-03 03:46:00,28.6,20.4,30.39,NNW,338,4.7,11.5,71,0.00,CLR,CLR,0.00,WeatherDisplay:10.37,2013-05-03 08:46:00,
2013-05-03 03:51:00,28.6,20.4,30.39,North,0,8.6,11.5,71,0.00,CLR,CLR,0.00,WeatherDisplay:10.37,2013-05-03 08:51:00,
2013-05-03 03:56:00,28.6,20.4,30.39,North,0,7.0,8.1,71,0.00,CLR,CLR,0.00,WeatherDisplay:10.37,2013-05-03 08:56:00,
2013-05-03 04:02:00,28.6,20.4,30.39,NW,315,8.2,8.2,71,0.00,CLR,CLR,0.00,WeatherDisplay:10.37,2013-05-03 09:02:00,
2013-05-03 04:07:00,28.6,20.4,30.38,North,0,8.9,10.4,71,0.00,CLR,CLR,0.00,WeatherDisplay:10.37,2013-05-03 09:07:00,
2013-05-03 04:12:00,28.6,20.4,30.38,NNW,338,5.8,8.1,71,0.00,CLR,CLR,0.00,WeatherDisplay:10.37,2013-05-03 09:12:00,
2013-05-03 04:17:00,28.6,20.7,30.38,NNW,338,5.9,9.2,72,0.00,CLR,CLR,0.00,WeatherDisplay:10.37,2013-05-03 09:17:00,
2013-05-03 04:22:00,28.2,20.3,30.38,NNW,338,7.4,11.5,72,0.00,CLR,CLR,0.00,WeatherDisplay:10.37,2013-05-03 09:22:00,
2013-05-03 04:27:00,28.2,20.3,30.37,NNW,338,5.9,6.9,72,0.00,CLR,CLR,0.00,WeatherDisplay:10.37,2013-05-03 09:27:00,
2013-05-03 04:32:00,28.2,20.3,30.38,NNW,338,7.3,7.3,72,0.00,CLR,CLR,0.00,WeatherDisplay:10.37,2013-05-03 09:32:00,
2013-05-03 04:38:00,28.0,20.2,30.38,NNW,338,6.4,8.9,72,0.00,CLR,CLR,0.00,WeatherDisplay:10.37,2013-05-03 09:38:00,
2013-05-03 04:43:00,28.0,20.2,30.38,North,0,6.4,6.9,72,0.00,CLR,CLR,0.00,WeatherDisplay:10.37,2013-05-03 09:43:00,
2013-05-03 04:48:00,28.0,20.5,30.37,NNW,338,7.6,9.2,73,0.00,CLR,CLR,0.00,WeatherDisplay:10.37,2013-05-03 09:48:00,
2013-05-03 04:53:00,28.0,20.5,30.38,NNW,338,6.5,9.4,73,0.00,CLR,CLR,0.00,WeatherDisplay:10.37,2013-05-03 09:53:00,
2013-05-03 04:58:00,28.0,20.5,30.37,NW,315,5.6,6.9,73,0.00,CLR,CLR,0.00,WeatherDisplay:10.37,2013-05-03 09:58:00,
2013-05-03 05:04:00,28.0,20.5,30.37,NW,315,8.1,9.2,73,0.00,CLR,CLR,0.00,WeatherDisplay:10.37,2013-05-03 10:04:00,
2013-05-03 05:09:00,28.0,20.5,30.37,NNW,338,6.9,9.2,73,0.00,CLR,CLR,0.00,WeatherDisplay:10.37,2013-05-03 10:09:00,
2013-05-03 05:14:00,28.0,20.5,30.37,NW,315,5.5,8.5,73,0.00,CLR,CLR,0.00,WeatherDisplay:10.37,2013-05-03 10:14:00,
2013-05-03 05:19:00,28.2,20.7,30.38,North,0,4.4,8.1,73,0.00,CLR,CLR,0.00,WeatherDisplay:10.37,2013-05-03 10:19:00,
2013-05-03 05:24:00,28.2,20.7,30.37,North,0,8.1,10.4,73,0.00,CLR,CLR,0.00,WeatherDisplay:10.37,2013-05-03 10:24:00,
2013-05-03 05:30:00,28.2,20.7,30.37,North,0,6.1,8.5,73,0.00,CLR,CLR,0.00,WeatherDisplay:10.37,2013-05-03 10:30:00,
2013-05-03 05:35:00,28.2,20.7,30.37,NNW,338,8.0,9.2,73,0.00,CLR,CLR,0.00,WeatherDisplay:10.37,2013-05-03 10:35:00,
2013-05-03 05:40:00,28.6,21.0,30.37,NNW,338,8.1,10.4,73,0.00,CLR,CLR,0.00,WeatherDisplay:10.37,2013-05-03 10:40:00,
2013-05-03 05:45:00,28.6,21.0,30.37,NW,315,7.1,9.2,73,0.00,CLR,CLR,0.00,WeatherDisplay:10.37,2013-05-03 10:45:00,
2013-05-03 05:50:00,28.6,21.0,30.37,NNW,338,10.4,12.7,73,0.00,CLR,CLR,0.00,WeatherDisplay:10.37,2013-05-03 10:50:00,
2013-05-03 05:55:00,28.6,21.0,30.37,North,0,7.7,9.2,73,0.00,CLR,CLR,0.00,WeatherDisplay:10.37,2013-05-03 10:55:00,
2013-05-03 06:00:00,28.8,21.2,30.36,NNW,338,5.7,9.2,73,0.00,CLR,CLR,0.00,WeatherDisplay:10.37,2013-05-03 11:00:00,
2013-05-03 06:05:00,28.8,21.2,30.37,WNW,292,7.3,11.2,73,0.00,CLR,CLR,0.00,WeatherDisplay:10.37,2013-05-03 11:05:00,
2013-05-03 06:11:00,28.8,21.2,30.37,NW,315,6.7,9.2,73,0.00,CLR,CLR,0.00,WeatherDisplay:10.37,2013-05-03 11:11:00,
2013-05-03 06:16:00,28.8,21.2,30.36,North,0,6.7,9.2,73,0.00,CLR,CLR,0.00,WeatherDisplay:10.37,2013-05-03 11:16:00,
2013-05-03 06:21:00,28.8,21.2,30.36,NW,315,5.7,8.1,73,0.00,CLR,CLR,0.00,WeatherDisplay:10.37,2013-05-03 11:21:00,
2013-05-03 06:26:00,28.8,21.2,30.36,NNW,338,6.4,9.2,73,0.00,CLR,CLR,0.00,WeatherDisplay:10.37,2013-05-03 11:26:00,
2013-05-03 06:31:00,28.9,21.4,30.36,NW,315,7.8,9.2,73,0.00,CLR,CLR,0.00,WeatherDisplay:10.37,2013-05-03 11:31:00,
2013-05-03 06:36:00,29.1,21.5,30.36,NNE,22,7.0,9.2,73,0.00,CLR,CLR,0.00,WeatherDisplay:10.37,2013-05-03 11:36:00,
2013-05-03 06:42:00,29.3,21.4,30.36,NW,315,8.2,9.8,72,0.00,CLR,CLR,0.00,WeatherDisplay:10.37,2013-05-03 11:42:00,
2013-05-03 06:47:00,29.3,21.4,30.36,NNW,338,9.6,11.5,72,0.00,CLR,CLR,0.00,WeatherDisplay:10.37,2013-05-03 11:47:00,
2013-05-03 06:52:00,29.5,21.6,30.36,NW,315,8.0,10.4,72,0.00,CLR,CLR,0.00,WeatherDisplay:10.37,2013-05-03 11:52:00,
2013-05-03 06:57:00,29.8,21.9,30.36,NNE,22,6.1,9.2,72,0.00,CLR,CLR,0.00,WeatherDisplay:10.37,2013-05-03 11:57:00,
2013-05-03 07:02:00,29.8,21.9,30.36,NNW,338,8.4,12.7,72,0.00,CLR,CLR,0.00,WeatherDisplay:10.37,2013-05-03 12:02:00,
2013-05-03 07:08:00,30.0,22.1,30.36,NNW,338,6.0,9.2,72,0.00,CLR,CLR,0.00,WeatherDisplay:10.37,2013-05-03 12:08:00,
2013-05-03 07:13:00,30.2,22.3,30.36,North,0,8.8,11.5,72,0.00,CLR,CLR,0.00,WeatherDisplay:10.37,2013-05-03 12:13:00,
2013-05-03 07:18:00,30.4,22.1,30.35,North,0,8.2,11.5,71,0.00,CLR,CLR,0.00,WeatherDisplay:10.37,2013-05-03 12:18:00,
2013-05-03 07:23:00,30.6,22.3,30.35,NNW,338,8.8,13.8,71,0.00,CLR,CLR,0.00,WeatherDisplay:10.37,2013-05-03 12:23:00,
2013-05-03 07:28:00,30.7,22.4,30.35,NNE,22,5.9,8.1,71,0.00,CLR,CLR,0.00,WeatherDisplay:10.37,2013-05-03 12:28:00,
2013-05-03 07:34:00,30.7,22.4,30.35,NNW,338,8.7,11.5,71,0.00,CLR,CLR,0.00,WeatherDisplay:10.37,2013-05-03 12:34:00,
2013-05-03 07:39:00,30.9,22.3,30.35,NNW,338,6.3,8.1,70,0.00,CLR,CLR,0.00,WeatherDisplay:10.37,2013-05-03 12:39:00,
2013-05-03 07:44:00,31.3,22.6,30.35,NNW,338,9.1,10.4,70,0.00,CLR,CLR,0.00,WeatherDisplay:10.37,2013-05-03 12:44:00,
2013-05-03 07:49:00,31.6,23.0,30.35,NW,315,6.8,10.4,70,0.00,CLR,CLR,0.00,WeatherDisplay:10.37,2013-05-03 12:49:00,
2013-05-03 07:54:00,31.6,22.6,30.35,NNE,22,7.0,10.4,69,0.00,CLR,CLR,0.00,WeatherDisplay:10.37,2013-05-03 12:54:00,
2013-05-03 08:00:00,31.8,22.8,30.35,NNW,338,9.5,11.5,69,0.00,CLR,CLR,0.00,WeatherDisplay:10.37,2013-05-03 13:00:00,
2013-05-03 08:05:00,32.0,23.0,30.35,NW,315,7.2,11.5,69,0.00,CLR,CLR,0.00,WeatherDisplay:10.37,2013-05-03 13:05:00,
2013-05-03 08:10:00,32.2,22.8,30.34,NW,315,8.3,9.2,68,0.00,CLR,CLR,0.00,WeatherDisplay:10.37,2013-05-03 13:10:00,
2013-05-03 08:15:00,32.2,22.8,30.34,NW,315,9.1,12.7,68,0.00,CLR,CLR,0.00,WeatherDisplay:10.37,2013-05-03 13:15:00,
2013-05-03 08:20:00,32.2,22.8,30.35,NNW,338,5.6,9.2,68,0.00,CLR,CLR,0.00,WeatherDisplay:10.37,2013-05-03 13:20:00,
2013-05-03 08:26:00,32.4,23.0,30.34,North,0,8.0,10.4,68,0.00,CLR,CLR,0.00,WeatherDisplay:10.37,2013-05-03 13:26:00,
2013-05-03 08:31:00,32.7,23.3,30.34,NNW,338,8.1,9.2,68,0.00,CLR,CLR,0.00,WeatherDisplay:10.37,2013-05-03 13:31:00,
2013-05-03 08:36:00,32.9,23.5,30.34,NNW,338,10.2,10.3,68,0.00,CLR,CLR,0.00,WeatherDisplay:10.37,2013-05-03 13:36:00,
2013-05-03 08:41:00,33.1,23.7,30.34,NNW,338,8.1,9.2,68,0.00,CLR,CLR,0.00,WeatherDisplay:10.37,2013-05-03 13:41:00,
2013-05-03 08:47:00,33.4,23.7,30.34,NNW,338,10.3,12.7,67,0.00,CLR,CLR,0.00,WeatherDisplay:10.37,2013-05-03 13:47:00,
2013-05-03 08:52:00,33.8,24.0,30.34,NNW,338,10.0,11.5,67,0.00,CLR,CLR,0.00,WeatherDisplay:10.37,2013-05-03 13:52:00,
2013-05-03 08:57:00,34.3,24.2,30.33,WNW,292,9.7,11.5,66,0.00,CLR,CLR,0.00,WeatherDisplay:10.37,2013-05-03 13:57:00,
2013-05-03 09:02:00,34.3,23.8,30.33,NNW,338,8.0,9.2,65,0.00,CLR,CLR,0.00,WeatherDisplay:10.37,2013-05-03 14:02:00,
2013-05-03 09:07:00,34.7,24.1,30.32,NNE,22,8.4,9.2,65,0.00,CLR,CLR,0.00,WeatherDisplay:10.37,2013-05-03 14:07:00,
2013-05-03 09:12:00,35.1,24.1,30.33,NNW,338,7.9,13.8,64,0.00,CLR,CLR,0.00,WeatherDisplay:10.37,2013-05-03 14:12:00,
2013-05-03 09:18:00,35.2,24.3,30.32,NW,315,7.6,11.5,64,0.00,CLR,CLR,0.00,WeatherDisplay:10.37,2013-05-03 14:18:00,
2013-05-03 09:23:00,35.4,24.4,30.33,NW,315,7.8,9.2,64,0.00,CLR,CLR,0.00,WeatherDisplay:10.37,2013-05-03 14:23:00,
2013-05-03 09:28:00,36.1,24.7,30.33,NNE,22,8.7,9.2,63,0.00,CLR,CLR,0.00,WeatherDisplay:10.37,2013-05-03 14:28:00,
2013-05-03 09:33:00,36.5,24.7,30.32,NW,315,13.2,18.4,62,0.00,CLR,CLR,0.00,WeatherDisplay:10.37,2013-05-03 14:33:00,
2013-05-03 09:38:00,36.9,24.7,30.31,NNW,338,10.3,11.5,61,0.00,CLR,CLR,0.00,WeatherDisplay:10.37,2013-05-03 14:38:00,
2013-05-03 09:43:00,37.0,24.4,30.31,NNW,338,12.1,13.8,60,0.00,CLR,CLR,0.00,WeatherDisplay:10.37,2013-05-03 14:43:00,
2013-05-03 09:48:00,37.2,25.0,30.31,NNW,338,11.5,16.1,61,0.00,CLR,CLR,0.00,WeatherDisplay:10.37,2013-05-03 14:48:00,
2013-05-03 09:54:00,37.2,24.2,30.31,North,0,9.5,12.7,59,0.00,CLR,CLR,0.00,WeatherDisplay:10.37,2013-05-03 14:54:00,
2013-05-03 09:59:00,37.2,24.2,30.30,NNW,338,9.9,11.5,59,0.00,CLR,CLR,0.00,WeatherDisplay:10.37,2013-05-03 14:59:00,
2013-05-03 10:04:00,37.6,24.9,30.30,NNW,338,8.2,12.7,60,0.00,CLR,CLR,0.00,WeatherDisplay:10.37,2013-05-03 15:04:00,
2013-05-03 10:09:00,37.9,24.9,30.30,North,0,14.6,19.6,59,0.00,CLR,CLR,0.00,WeatherDisplay:10.37,2013-05-03 15:09:00,
2013-05-03 10:14:00,38.1,24.6,30.30,NNW,338,8.0,9.2,58,0.00,CLR,CLR,0.00,WeatherDisplay:10.37,2013-05-03 15:14:00,
2013-05-03 10:19:00,38.3,24.8,30.31,NNW,338,14.1,18.4,58,0.00,CLR,CLR,0.00,WeatherDisplay:10.37,2013-05-03 15:19:00,
2013-05-03 10:25:00,38.5,25.0,30.31,WNW,292,8.2,12.7,58,0.00,CLR,CLR,0.00,WeatherDisplay:10.37,2013-05-03 15:25:00,
2013-05-03 10:30:00,38.8,24.9,30.31,NW,315,10.7,15.0,57,0.00,CLR,CLR,0.00,WeatherDisplay:10.37,2013-05-03 15:30:00,
2013-05-03 10:35:00,38.7,24.7,30.30,NNW,338,10.8,16.1,57,0.00,CLR,CLR,0.00,WeatherDisplay:10.37,2013-05-03 15:35:00,
2013-05-03 10:40:00,38.5,24.6,30.30,NE,45,10.3,13.8,57,0.00,CLR,CLR,0.00,WeatherDisplay:10.37,2013-05-03 15:40:00,
2013-05-03 10:45:00,38.5,24.6,30.31,NW,315,7.8,10.4,57,0.00,CLR,CLR,0.00,WeatherDisplay:10.37,2013-05-03 15:45:00,
2013-05-03 10:51:00,38.8,24.5,30.31,NNW,338,10.3,11.8,56,0.00,CLR,CLR,0.00,WeatherDisplay:10.37,2013-05-03 15:51:00,
2013-05-03 10:56:00,38.7,24.3,30.31,North,0,7.2,9.2,56,0.00,CLR,CLR,0.00,WeatherDisplay:10.37,2013-05-03 15:56:00,
2013-05-03 11:01:00,38.8,24.5,30.30,NNW,338,11.1,13.8,56,0.00,CLR,CLR,0.00,WeatherDisplay:10.37,2013-05-03 16:01:00,
2013-05-03 11:06:00,38.7,23.9,30.30,NNW,338,8.9,12.7,55,0.00,CLR,CLR,0.00,WeatherDisplay:10.37,2013-05-03 16:06:00,
2013-05-03 11:12:00,38.5,23.7,30.29,NNE,22,9.9,12.7,55,0.00,CLR,CLR,0.00,WeatherDisplay:10.37,2013-05-03 16:12:00,
2013-05-03 11:17:00,38.8,24.0,30.30,NW,315,10.3,13.8,55,0.00,CLR,CLR,0.00,WeatherDisplay:10.37,2013-05-03 16:17:00,
2013-05-03 11:22:00,38.8,24.0,30.30,NW,315,10.3,18.1,55,0.00,CLR,CLR,0.00,WeatherDisplay:10.37,2013-05-03 16:22:00,
2013-05-03 11:27:00,39.0,24.2,30.29,NNE,22,9.1,11.5,55,0.00,CLR,CLR,0.00,WeatherDisplay:10.37,2013-05-03 16:27:00,
2013-05-03 11:32:00,39.0,23.8,30.29,North,0,10.9,15.6,54,0.00,CLR,CLR,0.00,WeatherDisplay:10.37,2013-05-03 16:32:00,
2013-05-03 11:38:00,39.0,23.8,30.29,North,0,10.9,16.1,54,0.00,CLR,CLR,0.00,WeatherDisplay:10.37,2013-05-03 16:38:00,
2013-05-03 11:43:00,39.6,24.3,30.29,NE,45,10.5,11.5,54,0.00,CLR,CLR,0.00,WeatherDisplay:10.37,2013-05-03 16:43:00,
2013-05-03 11:48:00,39.9,24.2,30.28,NNE,22,10.8,14.5,53,0.00,CLR,CLR,0.00,WeatherDisplay:10.37,2013-05-03 16:48:00,
2013-05-03 11:54:00,40.3,24.5,30.28,NNW,338,11.8,15.0,53,0.00,CLR,CLR,0.00,WeatherDisplay:10.37,2013-05-03 16:54:00,
2013-05-03 11:59:00,40.8,24.5,30.28,NW,315,9.9,12.7,52,0.00,CLR,CLR,0.00,WeatherDisplay:10.37,2013-05-03 16:59:00,
2013-05-03 12:04:00,41.2,24.9,30.28,North,0,7.5,12.5,52,0.00,CLR,CLR,0.00,WeatherDisplay:10.37,2013-05-03 17:04:00,
2013-05-03 12:09:00,41.9,25.1,30.28,North,0,7.8,11.8,51,0.00,CLR,CLR,0.00,WeatherDisplay:10.37,2013-05-03 17:09:00,
2013-05-03 12:14:00,42.6,25.7,30.27,North,0,11.4,18.4,51,0.00,CLR,CLR,0.00,WeatherDisplay:10.37,2013-05-03 17:14:00,
2013-05-03 12:19:00,43.0,25.6,30.26,NNE,22,10.3,15.0,50,0.00,CLR,CLR,0.00,WeatherDisplay:10.37,2013-05-03 17:19:00,
2013-05-03 12:25:00,43.2,25.8,30.26,NE,45,8.2,10.4,50,0.00,CLR,CLR,0.00,WeatherDisplay:10.37,2013-05-03 17:25:00,
2013-05-03 12:30:00,43.5,26.1,30.26,North,0,9.8,11.5,50,0.00,CLR,CLR,0.00,WeatherDisplay:10.37,2013-05-03 17:30:00,
2013-05-03 12:35:00,44.4,26.4,30.26,NNW,338,11.3,12.7,49,0.00,CLR,CLR,0.00,WeatherDisplay:10.37,2013-05-03 17:35:00,
2013-05-03 12:40:00,45.1,26.6,30.26,NNE,22,8.0,11.5,48,0.00,CLR,CLR,0.00,WeatherDisplay:10.37,2013-05-03 17:40:00,
2013-05-03 12:45:00,45.1,26.1,30.26,NNW,338,13.1,15.0,47,0.00,CLR,CLR,0.00,WeatherDisplay:10.37,2013-05-03 17:45:00,
2013-05-03 12:50:00,45.1,26.1,30.25,NNW,338,8.3,15.0,47,0.00,CLR,CLR,0.00,WeatherDisplay:10.37,2013-05-03 17:50:00,
2013-05-03 12:55:00,45.7,26.1,30.26,North,0,9.8,11.5,46,0.00,CLR,CLR,0.00,WeatherDisplay:10.37,2013-05-03 17:55:00,
2013-05-03 13:00:00,45.7,25.5,30.24,NE,45,8.1,12.7,45,0.00,CLR,CLR,0.00,WeatherDisplay:10.37,2013-05-03 18:00:00,
2013-05-03 13:06:00,45.7,25.5,30.24,SSW,202,13.2,17.3,45,0.00,CLR,CLR,0.00,WeatherDisplay:10.37,2013-05-03 18:06:00,
2013-05-03 13:11:00,45.5,25.4,30.23,NNE,22,7.4,10.4,45,0.00,CLR,CLR,0.00,WeatherDisplay:10.37,2013-05-03 18:11:00,
2013-05-03 13:16:00,46.2,26.6,30.23,NNE,22,7.5,17.0,46,0.00,CLR,CLR,0.00,WeatherDisplay:10.37,2013-05-03 18:16:00,
2013-05-03 13:22:00,46.4,26.2,30.23,North,0,9.1,13.8,45,0.00,CLR,CLR,0.00,WeatherDisplay:10.37,2013-05-03 18:22:00,
2013-05-03 13:27:00,46.2,25.5,30.23,NNW,338,12.1,13.8,44,0.00,CLR,CLR,0.00,WeatherDisplay:10.37,2013-05-03 18:27:00,
2013-05-03 13:32:00,46.6,25.8,30.23,North,0,11.1,16.1,44,0.00,CLR,CLR,0.00,WeatherDisplay:10.37,2013-05-03 18:32:00,
2013-05-03 13:37:00,46.8,26.0,30.23,NNW,338,7.9,11.5,44,0.00,CLR,CLR,0.00,WeatherDisplay:10.37,2013-05-03 18:37:00,
2013-05-03 13:42:00,46.9,26.1,30.22,NNE,22,10.2,11.5,44,0.00,CLR,CLR,0.00,WeatherDisplay:10.37,2013-05-03 18:42:00,
2013-05-03 13:47:00,46.2,25.5,30.22,North,0,10.3,13.8,44,0.00,CLR,CLR,0.00,WeatherDisplay:10.37,2013-05-03 18:47:00,
2013-05-03 13:52:00,46.0,25.9,30.22,East,90,11.4,15.0,45,0.00,CLR,CLR,0.00,WeatherDisplay:10.37,2013-05-03 18:52:00,
2013-05-03 13:57:00,45.7,25.5,30.22,North,0,11.0,16.1,45,0.00,CLR,CLR,0.00,WeatherDisplay:10.37,2013-05-03 18:57:00,
2013-05-03 14:02:00,45.9,25.7,30.21,NNE,22,15.2,18.4,45,0.00,CLR,CLR,0.00,WeatherDisplay:10.37,2013-05-03 19:02:00,
2013-05-03 14:07:00,45.9,25.7,30.21,North,0,11.5,17.3,45,0.00,CLR,CLR,0.00,WeatherDisplay:10.37,2013-05-03 19:07:00,
2013-05-03 14:13:00,46.0,25.9,30.21,North,0,11.2,15.0,45,0.00,CLR,CLR,0.00,WeatherDisplay:10.37,2013-05-03 19:13:00,
2013-05-03 14:18:00,46.2,26.0,30.21,North,0,11.2,15.0,45,0.00,CLR,CLR,0.00,WeatherDisplay:10.37,2013-05-03 19:18:00,
2013-05-03 14:23:00,46.2,26.0,30.21,North,0,12.2,12.2,45,0.00,CLR,CLR,0.00,WeatherDisplay:10.37,2013-05-03 19:23:00,
2013-05-03 14:28:00,46.2,26.6,30.21,NNE,22,8.1,10.4,46,0.00,CLR,CLR,0.00,WeatherDisplay:10.37,2013-05-03 19:28:00,
2013-05-03 14:33:00,46.0,26.9,30.21,North,0,10.5,13.8,47,0.00,CLR,CLR,0.00,WeatherDisplay:10.37,2013-05-03 19:33:00,
2013-05-03 14:39:00,45.7,26.6,30.21,NNE,22,13.6,13.8,47,0.00,CLR,CLR,0.00,WeatherDisplay:10.37,2013-05-03 19:39:00,
2013-05-03 14:44:00,45.1,26.6,30.21,NNE,22,12.0,16.1,48,0.00,CLR,CLR,0.00,WeatherDisplay:10.37,2013-05-03 19:44:00,
2013-05-03 14:49:00,45.0,26.9,30.21,North,0,10.8,17.3,49,0.00,CLR,CLR,0.00,WeatherDisplay:10.37,2013-05-03 19:49:00,
2013-05-03 14:54:00,45.0,27.4,30.21,North,0,8.4,11.5,50,0.00,CLR,CLR,0.00,WeatherDisplay:10.37,2013-05-03 19:54:00,
2013-05-03 14:59:00,44.8,27.3,30.21,North,0,10.3,13.8,50,0.00,CLR,CLR,0.00,WeatherDisplay:10.37,2013-05-03 19:59:00,
2013-05-03 15:05:00,45.0,27.9,30.21,NE,45,9.5,17.3,51,0.00,CLR,CLR,0.00,WeatherDisplay:10.37,2013-05-03 20:05:00,
2013-05-03 15:10:00,45.0,27.9,30.21,NNE,22,5.1,11.5,51,0.00,CLR,CLR,0.00,WeatherDisplay:10.37,2013-05-03 20:10:00,
2013-05-03 15:15:00,45.0,27.9,30.21,NNW,338,11.8,13.8,51,0.00,CLR,CLR,0.00,WeatherDisplay:10.37,2013-05-03 20:15:00,
2013-05-03 15:20:00,44.8,27.3,30.21,NE,45,9.5,11.5,50,0.00,CLR,CLR,0.00,WeatherDisplay:10.37,2013-05-03 20:20:00,
2013-05-03 15:25:00,45.0,27.4,30.20,North,0,8.3,11.5,50,0.00,CLR,CLR,0.00,WeatherDisplay:10.37,2013-05-03 20:25:00,
2013-05-03 15:31:00,45.0,26.9,30.20,North,0,7.6,11.5,49,0.00,CLR,CLR,0.00,WeatherDisplay:10.37,2013-05-03 20:31:00,
2013-05-03 15:36:00,45.1,27.1,30.19,NNW,338,13.2,15.0,49,0.00,CLR,CLR,0.00,WeatherDisplay:10.37,2013-05-03 20:36:00,
2013-05-03 15:41:00,45.1,26.6,30.19,East,90,8.3,12.7,48,0.00,CLR,CLR,0.00,WeatherDisplay:10.37,2013-05-03 20:41:00,
2013-05-03 15:46:00,45.3,26.8,30.19,NNE,22,10.4,16.1,48,0.00,CLR,CLR,0.00,WeatherDisplay:10.37,2013-05-03 20:46:00,
2013-05-03 15:51:00,45.3,26.8,30.19,NNE,22,11.7,13.8,48,0.00,CLR,CLR,0.00,WeatherDisplay:10.37,2013-05-03 20:51:00,
2013-05-03 15:56:00,45.1,26.6,30.19,ENE,68,7.4,11.5,48,0.00,CLR,CLR,0.00,WeatherDisplay:10.37,2013-05-03 20:56:00,
2013-05-03 16:01:00,45.0,26.4,30.19,NE,45,8.1,10.5,48,0.00,CLR,CLR,0.00,WeatherDisplay:10.37,2013-05-03 21:01:00,
2013-05-03 16:06:00,45.1,26.6,30.19,North,0,11.2,13.8,48,0.00,CLR,CLR,0.00,WeatherDisplay:10.37,2013-05-03 21:06:00,
2013-05-03 16:12:00,44.8,26.8,30.19,ENE,68,5.7,10.4,49,0.00,CLR,CLR,0.00,WeatherDisplay:10.37,2013-05-03 21:12:00,
2013-05-03 16:17:00,44.4,26.4,30.19,NNE,22,7.8,9.2,49,0.00,CLR,CLR,0.00,WeatherDisplay:10.37,2013-05-03 21:17:00,
2013-05-03 16:22:00,44.4,26.9,30.19,NE,45,4.5,10.5,50,0.00,CLR,CLR,0.00,WeatherDisplay:10.37,2013-05-03 21:22:00,
2013-05-03 16:27:00,44.2,26.8,30.19,North,0,8.3,12.7,50,0.00,CLR,CLR,0.00,WeatherDisplay:10.37,2013-05-03 21:27:00,
2013-05-03 16:32:00,43.9,26.4,30.19,NNE,22,9.3,17.3,50,0.00,CLR,CLR,0.00,WeatherDisplay:10.37,2013-05-03 21:32:00,
2013-05-03 16:37:00,43.9,26.4,30.19,North,0,5.7,15.0,50,0.00,CLR,CLR,0.00,WeatherDisplay:10.37,2013-05-03 21:37:00,
2013-05-03 16:42:00,43.9,26.4,30.19,NNE,22,8.8,13.8,50,0.00,CLR,CLR,0.00,WeatherDisplay:10.37,2013-05-03 21:42:00,
2013-05-03 16:47:00,43.9,26.4,30.19,NNE,22,8.7,11.5,50,0.00,CLR,CLR,0.00,WeatherDisplay:10.37,2013-05-03 21:47:00,
2013-05-03 16:53:00,43.9,26.9,30.19,ENE,68,4.1,9.2,51,0.00,CLR,CLR,0.00,WeatherDisplay:10.37,2013-05-03 21:53:00,
2013-05-03 16:58:00,43.9,26.9,30.18,ENE,68,5.5,10.4,51,0.00,CLR,CLR,0.00,WeatherDisplay:10.37,2013-05-03 21:58:00,
2013-05-03 17:03:00,43.5,26.6,30.18,NNE,22,8.3,12.7,51,0.00,CLR,CLR,0.00,WeatherDisplay:10.37,2013-05-03 22:03:00,
2013-05-03 17:08:00,43.3,26.9,30.18,North,0,8.3,13.8,52,0.00,CLR,CLR,0.00,WeatherDisplay:10.37,2013-05-03 22:08:00,
2013-05-03 17:14:00,43.2,26.7,30.18,North,0,11.1,19.7,52,0.00,CLR,CLR,0.00,WeatherDisplay:10.37,2013-05-03 22:14:00,
2013-05-03 17:19:00,42.8,26.4,30.18,North,0,12.0,18.1,52,0.00,CLR,CLR,0.00,WeatherDisplay:10.37,2013-05-03 22:19:00,
2013-05-03 17:24:00,42.6,26.2,30.18,North,0,11.3,11.5,52,0.00,CLR,CLR,0.00,WeatherDisplay:10.37,2013-05-03 22:24:00,
2013-05-03 17:29:00,42.6,26.2,30.18,NE,45,8.7,11.5,52,0.00,CLR,CLR,0.00,WeatherDisplay:10.37,2013-05-03 22:29:00,
2013-05-03 17:34:00,42.8,26.4,30.18,North,0,8.8,13.8,52,0.00,CLR,CLR,0.00,WeatherDisplay:10.37,2013-05-03 22:34:00,
2013-05-03 17:40:00,43.0,26.5,30.18,NE,45,9.3,16.1,52,0.00,CLR,CLR,0.00,WeatherDisplay:10.37,2013-05-03 22:40:00,
2013-05-03 17:45:00,43.0,26.5,30.18,NNW,338,10.4,13.8,52,0.00,CLR,CLR,0.00,WeatherDisplay:10.37,2013-05-03 22:45:00,
2013-05-03 17:50:00,43.0,26.5,30.18,North,0,7.3,9.2,52,0.00,CLR,CLR,0.00,WeatherDisplay:10.37,2013-05-03 22:50:00,
2013-05-03 17:55:00,42.8,26.4,30.18,NNE,22,7.4,11.5,52,0.00,CLR,CLR,0.00,WeatherDisplay:10.37,2013-05-03 22:55:00,
2013-05-03 18:00:00,43.0,26.5,30.18,NNW,338,11.1,13.8,52,0.00,CLR,CLR,0.00,WeatherDisplay:10.37,2013-05-03 23:00:00,
2013-05-03 18:05:00,42.6,26.2,30.18,NNW,338,8.9,11.5,52,0.00,CLR,CLR,0.00,WeatherDisplay:10.37,2013-05-03 23:05:00,
2013-05-03 18:11:00,42.6,26.2,30.17,North,0,12.1,19.6,52,0.00,CLR,CLR,0.00,WeatherDisplay:10.37,2013-05-03 23:11:00,
2013-05-03 18:16:00,42.4,26.0,30.17,NNE,22,6.7,11.5,52,0.00,CLR,CLR,0.00,WeatherDisplay:10.37,2013-05-03 23:16:00,
2013-05-03 18:21:00,42.4,26.5,30.17,North,0,10.0,13.8,53,0.00,CLR,CLR,0.00,WeatherDisplay:10.37,2013-05-03 23:21:00,
2013-05-03 18:26:00,42.4,26.5,30.17,North,0,8.0,10.4,53,0.00,CLR,CLR,0.00,WeatherDisplay:10.37,2013-05-03 23:26:00,
2013-05-03 18:31:00,42.4,26.5,30.17,NNE,22,9.9,13.8,53,0.00,CLR,CLR,0.00,WeatherDisplay:10.37,2013-05-03 23:31:00,
2013-05-03 18:37:00,42.4,26.5,30.17,North,0,4.1,8.1,53,0.00,CLR,CLR,0.00,WeatherDisplay:10.37,2013-05-03 23:37:00,
2013-05-03 18:42:00,42.4,26.5,30.17,ENE,68,7.0,7.0,53,0.00,CLR,CLR,0.00,WeatherDisplay:10.37,2013-05-03 23:42:00,
2013-05-03 18:47:00,42.4,27.0,30.17,North,0,3.2,5.8,54,0.00,CLR,CLR,0.00,WeatherDisplay:10.37,2013-05-03 23:47:00,
2013-05-03 18:52:00,42.4,27.0,30.17,NNE,22,5.0,6.9,54,0.00,CLR,CLR,0.00,WeatherDisplay:10.37,2013-05-03 23:52:00,
2013-05-03 18:57:00,42.4,27.4,30.18,NNE,22,7.9,13.8,55,0.00,CLR,CLR,0.00,WeatherDisplay:10.37,2013-05-03 23:57:00,
2013-05-03 19:02:00,42.4,27.8,30.18,NNE,22,8.9,15.0,56,0.00,CLR,CLR,0.00,WeatherDisplay:10.37,2013-05-04 00:02:00,
2013-05-03 19:07:00,42.1,28.4,30.18,NNE,22,9.4,12.7,58,0.00,CLR,CLR,0.00,WeatherDisplay:10.37,2013-05-04 00:07:00,
2013-05-03 19:13:00,41.7,28.8,30.18,WNW,292,2.7,12.7,60,0.00,CLR,CLR,0.00,WeatherDisplay:10.37,2013-05-04 00:13:00,
2013-05-03 19:18:00,41.5,29.1,30.18,NNE,22,3.6,5.8,61,0.00,CLR,CLR,0.00,WeatherDisplay:10.37,2013-05-04 00:18:00,
2013-05-03 19:23:00,41.4,29.3,30.18,ENE,68,6.3,9.2,62,0.00,CLR,CLR,0.00,WeatherDisplay:10.37,2013-05-04 00:23:00,
2013-05-03 19:28:00,41.2,29.5,30.18,East,90,7.8,11.5,63,0.00,CLR,CLR,0.00,WeatherDisplay:10.37,2013-05-04 00:28:00,
2013-05-03 19:33:00,41.0,29.7,30.18,East,90,6.4,9.2,64,0.00,CLR,CLR,0.00,WeatherDisplay:10.37,2013-05-04 00:33:00,
2013-05-03 19:38:00,40.8,30.3,30.18,ENE,68,4.7,8.9,66,0.00,CLR,CLR,0.00,WeatherDisplay:10.37,2013-05-04 00:38:00,
2013-05-03 19:43:00,40.6,30.9,30.18,North,0,6.0,8.1,68,0.00,CLR,CLR,0.00,WeatherDisplay:10.37,2013-05-04 00:43:00,
2013-05-03 19:49:00,40.5,31.1,30.18,NE,45,5.2,11.2,69,0.00,CLR,CLR,0.00,WeatherDisplay:10.37,2013-05-04 00:49:00,
2013-05-03 19:54:00,39.9,31.3,30.18,NE,45,4.5,10.4,71,0.00,CLR,CLR,0.00,WeatherDisplay:10.37,2013-05-04 00:54:00,
2013-05-03 19:59:00,39.9,31.6,30.18,ENE,68,5.1,9.2,72,0.00,CLR,CLR,0.00,WeatherDisplay:10.37,2013-05-04 00:59:00,
2013-05-03 20:04:00,39.6,31.3,30.18,NE,45,7.5,8.1,72,0.00,CLR,CLR,0.00,WeatherDisplay:10.37,2013-05-04 01:04:00,
2013-05-03 20:09:00,39.4,31.8,30.18,ENE,68,7.2,10.4,74,0.00,CLR,CLR,0.00,WeatherDisplay:10.37,2013-05-04 01:09:00,
2013-05-03 20:14:00,39.0,31.4,30.18,NE,45,5.7,8.3,74,0.00,CLR,CLR,0.00,WeatherDisplay:10.37,2013-05-04 01:14:00,
2013-05-03 20:19:00,38.8,31.6,30.19,ENE,68,7.1,10.4,75,0.00,CLR,CLR,0.00,WeatherDisplay:10.37,2013-05-04 01:19:00,
2013-05-03 20:24:00,38.7,31.4,30.18,ENE,68,4.0,8.0,75,0.00,CLR,CLR,0.00,WeatherDisplay:10.37,2013-05-04 01:24:00,
2013-05-03 20:30:00,38.5,31.6,30.18,East,90,4.2,8.1,76,0.00,CLR,CLR,0.00,WeatherDisplay:10.37,2013-05-04 01:30:00,
2013-05-03 20:35:00,38.1,31.2,30.18,ENE,68,8.7,12.7,76,0.00,CLR,CLR,0.00,WeatherDisplay:10.37,2013-05-04 01:35:00,
2013-05-03 20:40:00,37.9,31.4,30.18,East,90,7.4,11.5,77,0.00,CLR,CLR,0.00,WeatherDisplay:10.37,2013-05-04 01:40:00,
2013-05-03 20:45:00,37.8,31.2,30.18,NE,45,8.5,11.5,77,0.00,CLR,CLR,0.00,WeatherDisplay:10.37,2013-05-04 01:45:00,
2013-05-03 20:50:00,37.4,30.8,30.17,East,90,5.6,9.2,77,0.00,CLR,CLR,0.00,WeatherDisplay:10.37,2013-05-04 01:50:00,
2013-05-03 20:55:00,37.2,30.7,30.17,ENE,68,6.4,10.4,77,0.00,CLR,CLR,0.00,WeatherDisplay:10.37,2013-05-04 01:55:00,
2013-05-03 21:01:00,37.2,31.0,30.17,NNE,22,5.1,9.2,78,0.00,CLR,CLR,0.00,WeatherDisplay:10.37,2013-05-04 02:01:00,
2013-05-03 21:06:00,37.2,31.0,30.17,NNW,338,6.4,11.5,78,0.00,CLR,CLR,0.00,WeatherDisplay:10.37,2013-05-04 02:06:00,
2013-05-03 21:11:00,37.2,31.0,30.17,NNE,22,7.2,10.3,78,0.00,CLR,CLR,0.00,WeatherDisplay:10.37,2013-05-04 02:11:00,
2013-05-03 21:16:00,37.2,31.3,30.17,NW,315,6.8,9.2,79,0.00,CLR,CLR,0.00,WeatherDisplay:10.37,2013-05-04 02:16:00,
2013-05-03 21:21:00,37.2,31.3,30.17,NNE,22,6.0,6.9,79,0.00,CLR,CLR,0.00,WeatherDisplay:10.37,2013-05-04 02:21:00,
2013-05-03 21:27:00,37.2,31.3,30.18,North,0,8.1,10.1,79,0.00,CLR,CLR,0.00,WeatherDisplay:10.37,2013-05-04 02:27:00,
2013-05-03 21:32:00,37.0,31.1,30.18,ENE,68,9.1,12.7,79,0.00,CLR,CLR,0.00,WeatherDisplay:10.37,2013-05-04 02:32:00,
2013-05-03 21:37:00,37.0,31.1,30.18,North,0,6.6,14.3,79,0.00,CLR,CLR,0.00,WeatherDisplay:10.37,2013-05-04 02:37:00,
2013-05-03 21:42:00,37.0,31.1,30.18,NE,45,4.3,11.6,79,0.00,CLR,CLR,0.00,WeatherDisplay:10.37,2013-05-04 02:42:00,
2013-05-03 21:47:00,36.9,31.0,30.18,NNE,22,7.5,11.5,79,0.00,CLR,CLR,0.00,WeatherDisplay:10.37,2013-05-04 02:47:00,
2013-05-03 21:52:00,36.9,30.6,30.18,North,0,6.7,10.5,78,0.00,CLR,CLR,0.00,WeatherDisplay:10.37,2013-05-04 02:52:00,
2013-05-03 21:57:00,36.7,30.5,30.18,NE,45,6.1,9.2,78,0.00,CLR,CLR,0.00,WeatherDisplay:10.37,2013-05-04 02:57:00,
2013-05-03 22:02:00,36.5,30.3,30.19,ENE,68,5.9,6.9,78,0.00,CLR,CLR,0.00,WeatherDisplay:10.37,2013-05-04 03:02:00,
2013-05-03 22:08:00,36.3,30.1,30.18,ENE,68,10.0,13.8,78,0.00,CLR,CLR,0.00,WeatherDisplay:10.37,2013-05-04 03:08:00,
2013-05-03 22:13:00,36.3,30.1,30.19,NNE,22,10.2,11.5,78,0.00,CLR,CLR,0.00,WeatherDisplay:10.37,2013-05-04 03:13:00,
2013-05-03 22:18:00,36.3,30.1,30.19,NNE,22,9.0,12.7,78,0.00,CLR,CLR,0.00,WeatherDisplay:10.37,2013-05-04 03:18:00,
2013-05-03 22:23:00,36.1,29.9,30.19,ESE,112,8.2,9.2,78,0.00,CLR,CLR,0.00,WeatherDisplay:10.37,2013-05-04 03:23:00,
2013-05-03 22:28:00,36.1,29.9,30.19,East,90,7.4,10.4,78,0.00,CLR,CLR,0.00,WeatherDisplay:10.37,2013-05-04 03:28:00,
2013-05-03 22:34:00,36.0,29.8,30.19,NE,45,7.1,11.5,78,0.00,CLR,CLR,0.00,WeatherDisplay:10.37,2013-05-04 03:34:00,
2013-05-03 22:39:00,35.8,29.9,30.19,NE,45,7.3,10.4,79,0.00,CLR,CLR,0.00,WeatherDisplay:10.37,2013-05-04 03:39:00,
2013-05-03 22:44:00,35.2,29.4,30.19,East,90,5.1,11.5,79,0.00,CLR,CLR,0.00,WeatherDisplay:10.37,2013-05-04 03:44:00,
2013-05-03 22:49:00,34.9,29.3,30.18,NE,45,7.6,11.5,80,0.00,CLR,CLR,0.00,WeatherDisplay:10.37,2013-05-04 03:49:00,
2013-05-03 22:54:00,34.7,29.5,30.19,ENE,68,6.6,9.2,81,0.00,CLR,CLR,0.00,WeatherDisplay:10.37,2013-05-04 03:54:00,
2013-05-03 23:00:00,34.5,29.3,30.19,NE,45,8.1,13.8,81,0.00,CLR,CLR,0.00,WeatherDisplay:10.37,2013-05-04 04:00:00,
2013-05-03 23:01:00,34.3,29.1,30.19,NE,45,4.6,9.2,81,0.00,CLR,CLR,0.00,WeatherDisplay:10.37,2013-05-04 04:01:00,
2013-05-03 23:02:00,34.3,29.1,30.19,NNE,22,4.9,8.1,81,0.00,CLR,CLR,0.00,WeatherDisplay:10.37,2013-05-04 04:02:00,
2013-05-03 23:03:00,34.3,29.1,30.19,NNE,22,6.0,10.9,81,0.00,CLR,CLR,0.00,WeatherDisplay:10.37,2013-05-04 04:03:00,
2013-05-03 23:08:00,34.3,29.4,30.19,NNE,22,3.3,4.6,82,0.00,CLR,CLR,0.00,WeatherDisplay:10.37,2013-05-04 04:08:00,
2013-05-03 23:13:00,34.2,29.5,30.20,NNE,22,5.8,11.5,83,0.00,CLR,CLR,0.00,WeatherDisplay:10.37,2013-05-04 04:13:00,
2013-05-03 23:18:00,34.0,29.1,30.20,East,90,4.3,8.1,82,0.00,CLR,CLR,0.00,WeatherDisplay:10.37,2013-05-04 04:18:00,
2013-05-03 23:24:00,34.0,29.4,30.19,North,0,4.0,6.9,83,0.00,CLR,CLR,0.00,WeatherDisplay:10.37,2013-05-04 04:24:00,
2013-05-03 23:29:00,34.0,29.4,30.19,NE,45,5.0,5.8,83,0.00,CLR,CLR,0.00,WeatherDisplay:10.37,2013-05-04 04:29:00,
2013-05-03 23:34:00,34.0,29.4,30.19,NE,45,3.9,6.0,83,0.00,CLR,CLR,0.00,WeatherDisplay:10.37,2013-05-04 04:34:00,
2013-05-03 23:39:00,34.0,29.4,30.19,NE,45,2.6,8.1,83,0.00,CLR,CLR,0.00,WeatherDisplay:10.37,2013-05-04 04:39:00,
2013-05-03 23:44:00,34.0,29.7,30.19,ENE,68,4.6,7.4,84,0.00,CLR,CLR,0.00,WeatherDisplay:10.37,2013-05-04 04:44:00,
2013-05-03 23:49:00,33.8,29.5,30.19,NE,45,2.9,3.6,84,0.00,CLR,CLR,0.00,WeatherDisplay:10.37,2013-05-04 04:49:00,
2013-05-03 23:55:00,33.8,29.5,30.19,North,0,3.0,6.7,84,0.00,CLR,CLR,0.00,WeatherDisplay:10.37,2013-05-04 04:55:00,